Weather History for Kirksville, MO

Change the Weather History Date:

Friday, September 28, 2012

  Actual Average Record
Temperature  
Mean Temperature 57 °F 59 °F  
Max Temperature 72 °F 71 °F 99 °F (1953)
Min Temperature 42 °F 48 °F 25 °F (1942)
Degree Days  
Heating Degree Days 8 7  
Month to date heating degree days 121 85  
Since 1 July heating degree days 128 92  
Cooling Degree Days 0 1  
Month to date cooling degree days 88 79  
Year to date cooling degree days 1300 923  
Growing Degree Days 8 (Base 50)    
Moisture  
Dew Point 43 °F    
Average Humidity 64    
Maximum Humidity 92    
Minimum Humidity 35    
Precipitation  
Precipitation 0.00 in 0.10 in 2.78 in (1999)
Month to date precipitation 2.93 3.91  
Year to date precipitation 20.76 31.32  
Sea Level Pressure  
Sea Level Pressure 30.19 in    
Wind  
Wind Speed 4 mph (ENE)    
Max Wind Speed 13 mph    
Max Gust Speed 16 mph    
Visibility 10 miles    
Events      
T = Trace of Precipitation, MM = Missing Value Source: NWS Daily Summary

Daily Weather History Graph

Daily Weather History Graph

Search for Another Location

Airport:

Trip Planner

Search our weather history database for the weather conditions in past years. The results will help you decide how hot, cold, wet, or windy it might be!

Date:

Astronomy

Sep. 28, 2012 Rise Set
Actual Time 7:04 AM CDT 6:56 PM CDT
Civil Twilight 6:37 AM CDT 7:23 PM CDT
Nautical Twilight 6:05 AM CDT 7:54 PM CDT
Astronomical Twilight 5:33 AM CDT 8:26 PM CDT
Moon 5:58 PM CDT (9/28) 5:35 AM CDT (9/28)
Length of Visible Light 12h 46m
Length of Day
11h 52m
Waxing Gibbous, 98% of the Moon is Illuminated
Sep 28
Waxing Gibbous
Sep 29
Full
Oct 8
Last Quarter
Oct 15
New
Oct 21
First Quarter

Hourly Weather History & Observations

Time (CDT) Temp. Windchill Dew Point Humidity Pressure Visibility Wind Dir Wind Speed Gust Speed Precip Events Conditions
12:55 AM 54.0 °F - 42.1 °F 64% 30.18 in 10.0 mi Calm Calm - N/A   Clear
1:55 AM 53.1 °F - 42.1 °F 66% 30.18 in 10.0 mi East 3.5 mph - N/A   Clear
2:55 AM 51.1 °F - 42.1 °F 71% 30.17 in 10.0 mi East 3.5 mph - N/A   Clear
3:55 AM 48.0 °F - 42.1 °F 80% 30.18 in 10.0 mi ENE 3.5 mph - N/A   Clear
4:55 AM 46.0 °F 44.8 °F 41.0 °F 83% 30.18 in 10.0 mi ENE 3.5 mph - N/A   Clear
5:55 AM 45.0 °F 43.5 °F 39.9 °F 82% 30.20 in 10.0 mi ENE 3.5 mph - N/A   Clear
6:55 AM 44.1 °F 40.8 °F 39.9 °F 85% 30.21 in 10.0 mi NE 5.8 mph - N/A   Clear
7:55 AM 46.9 °F - 43.0 °F 86% 30.22 in 10.0 mi NE 4.6 mph - N/A   Clear
8:55 AM 55.0 °F - 46.0 °F 72% 30.23 in 10.0 mi East 5.8 mph - N/A   Clear
9:55 AM 60.1 °F - 48.0 °F 64% 30.24 in 10.0 mi ESE 4.6 mph - N/A   Clear
10:55 AM 64.9 °F - 46.0 °F 50% 30.24 in 10.0 mi East 5.8 mph - N/A   Clear
11:55 AM 66.9 °F - 45.0 °F 45% 30.23 in 10.0 mi NE 11.5 mph - N/A   Clear
12:55 PM 66.9 °F - 44.1 °F 44% 30.22 in 10.0 mi ENE 8.1 mph - N/A   Clear
1:55 PM 69.1 °F - 44.1 °F 40% 30.19 in 10.0 mi ENE 8.1 mph - N/A   Clear
2:55 PM 70.0 °F - 43.0 °F 38% 30.17 in 10.0 mi Variable 5.8 mph - N/A   Clear
3:55 PM 71.1 °F - 43.0 °F 36% 30.15 in 10.0 mi NE 5.8 mph - N/A   Clear
4:55 PM 70.0 °F - 42.1 °F 36% 30.16 in 10.0 mi ENE 4.6 mph - N/A   Clear
5:55 PM 69.1 °F - 43.0 °F 39% 30.15 in 10.0 mi Calm Calm - N/A   Clear
6:55 PM 57.9 °F - 46.0 °F 65% 30.15 in 10.0 mi Calm Calm - N/A   Clear
7:55 PM 54.0 °F - 45.0 °F 72% 30.16 in 10.0 mi Calm Calm - N/A   Clear
8:55 PM 51.1 °F - 44.1 °F 77% 30.17 in 10.0 mi ENE 3.5 mph - N/A   Clear
9:55 PM 48.9 °F - 43.0 °F 80% 30.18 in 10.0 mi Calm Calm - N/A   Clear
10:55 PM 45.0 °F - 43.0 °F 93% 30.18 in 10.0 mi Calm Calm - N/A   Clear
11:55 PM 44.1 °F - 42.1 °F 93% 30.18 in 10.0 mi Calm Calm - N/A   Clear